Cloud_Cover
5 22 25 48 100 60 99 84 100 73 100 100 100 100 100 98 96 90 85 94 12 94 100 100 98 46 90 29 83 100 100 99 35 7 1 9 96 97 98 70 5 59 5 23
5 51 11 6 97 100 82 100 100 100 100 100 100 100 100 96 100 100 90 87 97 20 78 100 99 94 36 73 54 63 78 74 57 75 97 96 79 10 84 86 75 100 100 86
3 5 3 28 22 89 90 100 100 69 100 100 100 98 100 100 99 100 95 72 100 65 98 100 90 71 72 64 84 93 6 98 42 82 42 27 75 10 91 100 100 100 99 49
5 5 5 0 5 92 61 66 100 95 100 90 93 100 100 100 99 54 100 94 97 95 100 100 100 100 92 100 100 59 98 97 40 7 5 27 100 100 100 100 73 100 100 100
5 5 5 0 3 17 97 100 100 97 100 100 90 100 100 96 45 100 100 98 81 92 100 97 100 100 75 100 90 100 86 78 48 5 5 100 98 100 100 100 100 100 100 100
7 5 5 0 3 66 100 100 100 100 36 9 40 84 100 93 99 100 100 84 88 100 100 82 99 99 100 100 100 92 98 86 47 70 43 100 100 76 97 100 97 100 100 100
5 6 5 5 3 94 100 100 100 100 100 34 95 27 12 41 79 100 100 100 100 100 100 92 100 100 100 98 99 86 98 100 100 96 99 100 92 100 100 100 100 100 100 100
24 100 5 5 4 15 100 100 100 100 100 100 100 100 100 29 16 100 100 100 100 100 100 100 100 100 91 60 56 100 100 100 100 93 97 97 99 99 100 100 100 100 100 100
5 76 5 5 5 4 100 100 100 100 100 48 66 47 5 90 96 70 100 100 100 100 100 100 100 100 73 80 88 98 100 100 100 100 98 92 86 100 100 100 100 100 100 100
5 5 74 5 5 5 38 100 100 100 100 98 27 67 100 100 100 100 84 93 100 100 100 100 100 100 62 87 100 100 100 100 100 100 100 98 97 86 100 100 100 100 100 100
8 6 75 39 5 5 4 73 100 100 100 100 87 99 98 78 66 89 66 82 100 100 100 99 100 100 93 99 100 100 100 72 100 100 100 100 100 100 100 100 97 94 100 100
91 90 8 13 36 30 5 17 88 100 100 100 100 78 7 47 36 82 99 56 100 100 100 100 100 100 100 93 100 98 97 95 84 100 100 100 100 100 100 10 47 72 85 88
64 100 96 99 10 89 10 5 92 100 100 100 86 90 57 91 99 98 100 100 100 100 100 100 100 100 69 70 100 98 56 100 100 94 57 86 23 11 12 19 14 23 42 11
100 95 100 100 22 5 62 99 72 100 100 100 98 78 89 100 100 100 100 100 100 100 100 100 100 100 74 100 100 100 78 26 31 90 87 10 63 62 99 100 100 52 5 43
88 100 34 10 5 5 58 100 60 100 100 100 98 92 31 82 100 100 100 100 100 100 100 100 100 94 99 100 100 100 97 37 31 99 60 38 99 100 95 62 30 87 65 76
100 70 96 100 96 75 26 98 100 100 100 100 100 100 52 100 100 100 100 100 99 100 100 100 100 100 100 100 100 95 100 99 93 100 100 42 100 100 100 79 78 88 69 71
95 92 48 36 79 93 60 96 100 100 100 100 100 96 59 97 100 100 100 100 100 100 100 100 100 100 100 100 100 77 100 100 100 36 67 100 100 97 15 70 89 88 82 74
14 13 79 100 100 89 14 100 100 100 100 100 100 100 100 100 100 100 94 100 100 100 100 100 99 100 100 100 91 100 100 100 36 77 100 98 33 6 39 81 97 69 100 100
5 5 87 58 84 98 94 100 100 100 100 100 100 100 100 100 100 100 100 100 100 100 100 100 100 100 100 100 86 99 100 100 100 100 96 91 34 12 99 100 100 72 99 100
15 8 13 10 88 82 100 100 100 100 100 100 100 100 100 100 100 100 100 100 100 100 100 100 100 100 100 100 86 62 28 88 87 95 100 100 67 100 100 100 100 100 100 100
95 94 94 66 100 100 100 100 100 100 100 100 82 100 100 100 100 100 100 100 100 100 100 100 100 100 100 97 99 99 59 9 93 100 100 90 98 100 100 100 100 100 100 100
100 70 98 100 100 100 100 100 100 100 87 99 100 100 100 100 100 100 100 100 100 100 100 100 100 100 100 100 93 69 92 100 100 100 100 100 100 100 100 100 100 100 100 100
96 100 98 100 100 100 100 100 100 100 100 100 98 100 100 100 100 100 100 100 100 100 100 100 100 100 100 100 100 100 100 100 100 100 100 100 100 100 100 100 100 100 100 100
100 99 100 80 100 100 100 100 100 100 100 100 100 100 100 100 100 100 100 100 100 100 100 100 100 100 100 100 100 100 100 100 100 100 100 100 100 100 100 100 100 100 100 100
100 95 100 98 94 100 100 100 100 100 100 100 100 100 100 100 100 100 100 100 100 100 100 100 100 100 100 100 100 100 100 100 100 100 100 100 100 100 100 100 100 100 100 100
100 100 100 100 100 100 100 100 100 100 100 100 100 100 100 100 100 100 100 100 100 100 100 100 100 100 100 100 100 100 100 100 100 100 100 100 100 100 100 100 100 100 100 100
100 100 100 100 100 100 100 25 15 86 100 100 100 100 97 100 100 100 100 100 100 95 54 100 100 100 100 100 100 100 100 100 100 100 100 100 100 100 100 100 100 100 100 100